Location: Bremen
(53.0793°N, 8.8017°E)
Time: 22:08:53
(UTC+02:00)

Vanguard 2 Rocket - Pass Details

Date: 14 April 2024
Orbit: 556 x 3304 km, 32.9° (Epoch: 20 May)

Event Time Altitude Azimuth Distance (km) Brightness Sun altitude
Rises 02:35:36 0° 246° (WSW) 7,269 - -25.6°
Reaches altitude 10° 02:41:08 10° 239° (WSW) 6,252 - -25.3°
Exits shadow 02:53:23 33° 206° (SSW) 4,306 9.7 -24.6°
Maximum altitude 02:57:37 36° 183° (S) 3,938 9.6 -24.4°
Drops below altitude 10° 03:09:57 10° 124° (SE) 4,703 10.5 -23.5°
Sets 03:13:25 0° 116° (ESE) 5,353 10.9 -23.3°
